<?xml version="1.0" encoding="UTF-8"?>
<gpx version="1.0" creator="http://thydzik.com" xmlns:xsi="http://www.w3.org/2001/XMLSchema-instance" xmlns="http://www.topografix.com/GPX/1/0" xsi:schemaLocation="http://www.topografix.com/GPX/1/0 http://www.topografix.com/GPX/1/0/gpx.xsd">
  <url></url>
  <time>2024-03-12T04:12:48Z</time>
  <trk>
    <name></name>
    <trkseg>
      <trkpt lat="40.752759" lon="-3.993277">
        <time>2024-03-12T04:12:48Z</time>
      </trkpt>
      <trkpt lat="40.752784" lon="-3.993288">
        <time>2024-03-12T04:12:48Z</time>
      </trkpt>
      <trkpt lat="40.7528662991957" lon="-3.99334891110805">
        <time>2024-03-12T04:12:48Z</time>
      </trkpt>
      <trkpt lat="40.7529941942211" lon="-3.99343368224139">
        <time>2024-03-12T04:12:48Z</time>
      </trkpt>
      <trkpt lat="40.7534705079858" lon="-3.99395841437515">
        <time>2024-03-12T04:12:48Z</time>
      </trkpt>
      <trkpt lat="40.753602581364" lon="-3.99405914224722">
        <time>2024-03-12T04:12:48Z</time>
      </trkpt>
      <trkpt lat="40.7537348110919" lon="-3.99414170990724">
        <time>2024-03-12T04:12:48Z</time>
      </trkpt>
      <trkpt lat="40.753843775027" lon="-3.99421939054711">
        <time>2024-03-12T04:12:48Z</time>
      </trkpt>
      <trkpt lat="40.7540091658608" lon="-3.99426045091836">
        <time>2024-03-12T04:12:48Z</time>
      </trkpt>
      <trkpt lat="40.7541523007822" lon="-3.99427961127643">
        <time>2024-03-12T04:12:48Z</time>
      </trkpt>
      <trkpt lat="40.7543101384509" lon="-3.99429558519979">
        <time>2024-03-12T04:12:48Z</time>
      </trkpt>
      <trkpt lat="40.7544041720498" lon="-3.99430266219611">
        <time>2024-03-12T04:12:48Z</time>
      </trkpt>
      <trkpt lat="40.7545085046746" lon="-3.99431670384775">
        <time>2024-03-12T04:12:48Z</time>
      </trkpt>
      <trkpt lat="40.7547097634827" lon="-3.99430267451309">
        <time>2024-03-12T04:12:48Z</time>
      </trkpt>
      <trkpt lat="40.7550053688102" lon="-3.99425940025479">
        <time>2024-03-12T04:12:48Z</time>
      </trkpt>
      <trkpt lat="40.7553981615776" lon="-3.99405750864185">
        <time>2024-03-12T04:12:48Z</time>
      </trkpt>
      <trkpt lat="40.7555354668141" lon="-3.99395170856607">
        <time>2024-03-12T04:12:48Z</time>
      </trkpt>
      <trkpt lat="40.755832" lon="-3.993773">
        <time>2024-03-12T04:12:48Z</time>
      </trkpt>
      <trkpt lat="40.755878" lon="-3.993742">
        <time>2024-03-12T04:12:48Z</time>
      </trkpt>
      <trkpt lat="40.756057" lon="-3.993643">
        <time>2024-03-12T04:12:48Z</time>
      </trkpt>
      <trkpt lat="40.756125" lon="-3.99361">
        <time>2024-03-12T04:12:48Z</time>
      </trkpt>
      <trkpt lat="40.7564081957505" lon="-3.99345271926083">
        <time>2024-03-12T04:12:48Z</time>
      </trkpt>
      <trkpt lat="40.7565227851704" lon="-3.99337836471182">
        <time>2024-03-12T04:12:48Z</time>
      </trkpt>
      <trkpt lat="40.7567889324364" lon="-3.9932472336534">
        <time>2024-03-12T04:12:48Z</time>
      </trkpt>
      <trkpt lat="40.7570729452501" lon="-3.9932469201635">
        <time>2024-03-12T04:12:48Z</time>
      </trkpt>
      <trkpt lat="40.7572896329745" lon="-3.99324560456437">
        <time>2024-03-12T04:12:48Z</time>
      </trkpt>
      <trkpt lat="40.75749" lon="-3.993229">
        <time>2024-03-12T04:12:48Z</time>
      </trkpt>
      <trkpt lat="40.7578013226649" lon="-3.9930704453484">
        <time>2024-03-12T04:12:48Z</time>
      </trkpt>
      <trkpt lat="40.757997754045" lon="-3.99301547067903">
        <time>2024-03-12T04:12:48Z</time>
      </trkpt>
      <trkpt lat="40.7580831269572" lon="-3.99302582325391">
        <time>2024-03-12T04:12:48Z</time>
      </trkpt>
      <trkpt lat="40.7581511526486" lon="-3.99314603783925">
        <time>2024-03-12T04:12:48Z</time>
      </trkpt>
      <trkpt lat="40.7582376006526" lon="-3.99333237202156">
        <time>2024-03-12T04:12:48Z</time>
      </trkpt>
      <trkpt lat="40.758190850881" lon="-3.99354851071375">
        <time>2024-03-12T04:12:48Z</time>
      </trkpt>
      <trkpt lat="40.7580217105253" lon="-3.99374239169802">
        <time>2024-03-12T04:12:48Z</time>
      </trkpt>
      <trkpt lat="40.757878610749" lon="-3.9939196307774">
        <time>2024-03-12T04:12:48Z</time>
      </trkpt>
      <trkpt lat="40.7578891178871" lon="-3.99400266088149">
        <time>2024-03-12T04:12:48Z</time>
      </trkpt>
      <trkpt lat="40.7579235778135" lon="-3.99411102347382">
        <time>2024-03-12T04:12:48Z</time>
      </trkpt>
      <trkpt lat="40.757981" lon="-3.994194">
        <time>2024-03-12T04:12:48Z</time>
      </trkpt>
      <trkpt lat="40.758219" lon="-3.99428">
        <time>2024-03-12T04:12:48Z</time>
      </trkpt>
      <trkpt lat="40.758335" lon="-3.994327">
        <time>2024-03-12T04:12:48Z</time>
      </trkpt>
      <trkpt lat="40.759670693625" lon="-3.99452418576926">
        <time>2024-03-12T04:12:48Z</time>
      </trkpt>
      <trkpt lat="40.7599945643095" lon="-3.99456161076118">
        <time>2024-03-12T04:12:48Z</time>
      </trkpt>
      <trkpt lat="40.760215861674" lon="-3.9943711000099">
        <time>2024-03-12T04:12:48Z</time>
      </trkpt>
      <trkpt lat="40.7604558345034" lon="-3.99437240583292">
        <time>2024-03-12T04:12:48Z</time>
      </trkpt>
      <trkpt lat="40.7606588315408" lon="-3.99445717294731">
        <time>2024-03-12T04:12:48Z</time>
      </trkpt>
      <trkpt lat="40.760719674353" lon="-3.99450916843316">
        <time>2024-03-12T04:12:48Z</time>
      </trkpt>
      <trkpt lat="40.7612560415504" lon="-3.99467610714257">
        <time>2024-03-12T04:12:48Z</time>
      </trkpt>
      <trkpt lat="40.7617304070579" lon="-3.99472518613319">
        <time>2024-03-12T04:12:48Z</time>
      </trkpt>
      <trkpt lat="40.762175" lon="-3.994912">
        <time>2024-03-12T04:12:48Z</time>
      </trkpt>
      <trkpt lat="40.7622932100222" lon="-3.99502989837738">
        <time>2024-03-12T04:12:48Z</time>
      </trkpt>
      <trkpt lat="40.7623669996497" lon="-3.99508208879214">
        <time>2024-03-12T04:12:48Z</time>
      </trkpt>
      <trkpt lat="40.762456" lon="-3.995199">
        <time>2024-03-12T04:12:48Z</time>
      </trkpt>
      <trkpt lat="40.762482" lon="-3.995321">
        <time>2024-03-12T04:12:48Z</time>
      </trkpt>
      <trkpt lat="40.762476466669" lon="-3.99540161468459">
        <time>2024-03-12T04:12:48Z</time>
      </trkpt>
      <trkpt lat="40.762408" lon="-3.995539">
        <time>2024-03-12T04:12:48Z</time>
      </trkpt>
      <trkpt lat="40.7620635172395" lon="-3.99573832191264">
        <time>2024-03-12T04:12:48Z</time>
      </trkpt>
      <trkpt lat="40.7619758404735" lon="-3.99579491489035">
        <time>2024-03-12T04:12:48Z</time>
      </trkpt>
      <trkpt lat="40.7617963768844" lon="-3.9958841973102">
        <time>2024-03-12T04:12:48Z</time>
      </trkpt>
      <trkpt lat="40.7616982443897" lon="-3.99595198699142">
        <time>2024-03-12T04:12:48Z</time>
      </trkpt>
      <trkpt lat="40.7616175608237" lon="-3.99599846592361">
        <time>2024-03-12T04:12:48Z</time>
      </trkpt>
      <trkpt lat="40.761445" lon="-3.996143">
        <time>2024-03-12T04:12:48Z</time>
      </trkpt>
      <trkpt lat="40.761405" lon="-3.99621">
        <time>2024-03-12T04:12:48Z</time>
      </trkpt>
      <trkpt lat="40.761408" lon="-3.996249">
        <time>2024-03-12T04:12:48Z</time>
      </trkpt>
      <trkpt lat="40.761438" lon="-3.996293">
        <time>2024-03-12T04:12:48Z</time>
      </trkpt>
      <trkpt lat="40.761484" lon="-3.996285">
        <time>2024-03-12T04:12:48Z</time>
      </trkpt>
      <trkpt lat="40.761764" lon="-3.996239">
        <time>2024-03-12T04:12:48Z</time>
      </trkpt>
      <trkpt lat="40.761951" lon="-3.996223">
        <time>2024-03-12T04:12:48Z</time>
      </trkpt>
      <trkpt lat="40.762225" lon="-3.996186">
        <time>2024-03-12T04:12:48Z</time>
      </trkpt>
      <trkpt lat="40.762491" lon="-3.996178">
        <time>2024-03-12T04:12:48Z</time>
      </trkpt>
      <trkpt lat="40.762605" lon="-3.996137">
        <time>2024-03-12T04:12:48Z</time>
      </trkpt>
      <trkpt lat="40.762712" lon="-3.996103">
        <time>2024-03-12T04:12:48Z</time>
      </trkpt>
      <trkpt lat="40.76278" lon="-3.996072">
        <time>2024-03-12T04:12:48Z</time>
      </trkpt>
      <trkpt lat="40.763613" lon="-3.99603">
        <time>2024-03-12T04:12:48Z</time>
      </trkpt>
      <trkpt lat="40.764198" lon="-3.99596">
        <time>2024-03-12T04:12:48Z</time>
      </trkpt>
      <trkpt lat="40.764382" lon="-3.995957">
        <time>2024-03-12T04:12:48Z</time>
      </trkpt>
      <trkpt lat="40.764537" lon="-3.995921">
        <time>2024-03-12T04:12:48Z</time>
      </trkpt>
      <trkpt lat="40.76485" lon="-3.995825">
        <time>2024-03-12T04:12:48Z</time>
      </trkpt>
      <trkpt lat="40.765506" lon="-3.995606">
        <time>2024-03-12T04:12:48Z</time>
      </trkpt>
      <trkpt lat="40.766095" lon="-3.995268">
        <time>2024-03-12T04:12:48Z</time>
      </trkpt>
      <trkpt lat="40.766558" lon="-3.994904">
        <time>2024-03-12T04:12:48Z</time>
      </trkpt>
      <trkpt lat="40.766695" lon="-3.994773">
        <time>2024-03-12T04:12:48Z</time>
      </trkpt>
      <trkpt lat="40.766813" lon="-3.994658">
        <time>2024-03-12T04:12:48Z</time>
      </trkpt>
      <trkpt lat="40.766956" lon="-3.994503">
        <time>2024-03-12T04:12:48Z</time>
      </trkpt>
      <trkpt lat="40.7670003827221" lon="-3.99444497953118">
        <time>2024-03-12T04:12:48Z</time>
      </trkpt>
      <trkpt lat="40.76712735991" lon="-3.99433560214396">
        <time>2024-03-12T04:12:48Z</time>
      </trkpt>
      <trkpt lat="40.767237" lon="-3.99414">
        <time>2024-03-12T04:12:48Z</time>
      </trkpt>
      <trkpt lat="40.767333" lon="-3.993674">
        <time>2024-03-12T04:12:48Z</time>
      </trkpt>
      <trkpt lat="40.76733" lon="-3.993518">
        <time>2024-03-12T04:12:48Z</time>
      </trkpt>
      <trkpt lat="40.767298" lon="-3.993349">
        <time>2024-03-12T04:12:48Z</time>
      </trkpt>
      <trkpt lat="40.767188" lon="-3.993211">
        <time>2024-03-12T04:12:48Z</time>
      </trkpt>
      <trkpt lat="40.766798" lon="-3.993078">
        <time>2024-03-12T04:12:48Z</time>
      </trkpt>
      <trkpt lat="40.766375" lon="-3.992918">
        <time>2024-03-12T04:12:48Z</time>
      </trkpt>
      <trkpt lat="40.766322" lon="-3.992889">
        <time>2024-03-12T04:12:48Z</time>
      </trkpt>
      <trkpt lat="40.766298" lon="-3.992838">
        <time>2024-03-12T04:12:48Z</time>
      </trkpt>
      <trkpt lat="40.766334" lon="-3.992739">
        <time>2024-03-12T04:12:48Z</time>
      </trkpt>
      <trkpt lat="40.766475" lon="-3.99261">
        <time>2024-03-12T04:12:48Z</time>
      </trkpt>
      <trkpt lat="40.766965" lon="-3.992461">
        <time>2024-03-12T04:12:48Z</time>
      </trkpt>
      <trkpt lat="40.767277" lon="-3.992283">
        <time>2024-03-12T04:12:48Z</time>
      </trkpt>
      <trkpt lat="40.767526" lon="-3.992117">
        <time>2024-03-12T04:12:48Z</time>
      </trkpt>
      <trkpt lat="40.768043" lon="-3.991932">
        <time>2024-03-12T04:12:48Z</time>
      </trkpt>
      <trkpt lat="40.7682" lon="-3.991852">
        <time>2024-03-12T04:12:48Z</time>
      </trkpt>
      <trkpt lat="40.7685" lon="-3.991768">
        <time>2024-03-12T04:12:48Z</time>
      </trkpt>
      <trkpt lat="40.768585" lon="-3.991805">
        <time>2024-03-12T04:12:48Z</time>
      </trkpt>
      <trkpt lat="40.768679" lon="-3.991865">
        <time>2024-03-12T04:12:48Z</time>
      </trkpt>
      <trkpt lat="40.768776" lon="-3.99192">
        <time>2024-03-12T04:12:48Z</time>
      </trkpt>
      <trkpt lat="40.768905" lon="-3.99205">
        <time>2024-03-12T04:12:48Z</time>
      </trkpt>
      <trkpt lat="40.769002" lon="-3.99214">
        <time>2024-03-12T04:12:48Z</time>
      </trkpt>
      <trkpt lat="40.769074" lon="-3.992207">
        <time>2024-03-12T04:12:48Z</time>
      </trkpt>
      <trkpt lat="40.769162" lon="-3.992275">
        <time>2024-03-12T04:12:48Z</time>
      </trkpt>
      <trkpt lat="40.769228" lon="-3.992368">
        <time>2024-03-12T04:12:48Z</time>
      </trkpt>
      <trkpt lat="40.769262" lon="-3.992479">
        <time>2024-03-12T04:12:48Z</time>
      </trkpt>
      <trkpt lat="40.769246" lon="-3.992787">
        <time>2024-03-12T04:12:48Z</time>
      </trkpt>
      <trkpt lat="40.769238" lon="-3.993157">
        <time>2024-03-12T04:12:48Z</time>
      </trkpt>
      <trkpt lat="40.76923" lon="-3.993565">
        <time>2024-03-12T04:12:48Z</time>
      </trkpt>
      <trkpt lat="40.769341" lon="-3.99393">
        <time>2024-03-12T04:12:48Z</time>
      </trkpt>
      <trkpt lat="40.769562" lon="-3.994243">
        <time>2024-03-12T04:12:48Z</time>
      </trkpt>
      <trkpt lat="40.7696508487655" lon="-3.99441182629443">
        <time>2024-03-12T04:12:48Z</time>
      </trkpt>
      <trkpt lat="40.769746209331" lon="-3.99456539920167">
        <time>2024-03-12T04:12:48Z</time>
      </trkpt>
      <trkpt lat="40.769776" lon="-3.99484">
        <time>2024-03-12T04:12:48Z</time>
      </trkpt>
      <trkpt lat="40.769674" lon="-3.995033">
        <time>2024-03-12T04:12:48Z</time>
      </trkpt>
      <trkpt lat="40.769648" lon="-3.995054">
        <time>2024-03-12T04:12:48Z</time>
      </trkpt>
      <trkpt lat="40.769588" lon="-3.995123">
        <time>2024-03-12T04:12:48Z</time>
      </trkpt>
      <trkpt lat="40.769437" lon="-3.995251">
        <time>2024-03-12T04:12:48Z</time>
      </trkpt>
      <trkpt lat="40.769298" lon="-3.995398">
        <time>2024-03-12T04:12:48Z</time>
      </trkpt>
      <trkpt lat="40.769138" lon="-3.995563">
        <time>2024-03-12T04:12:48Z</time>
      </trkpt>
      <trkpt lat="40.76891" lon="-3.995803">
        <time>2024-03-12T04:12:48Z</time>
      </trkpt>
      <trkpt lat="40.76867" lon="-3.996151">
        <time>2024-03-12T04:12:48Z</time>
      </trkpt>
      <trkpt lat="40.768608" lon="-3.996368">
        <time>2024-03-12T04:12:48Z</time>
      </trkpt>
      <trkpt lat="40.7685092019901" lon="-3.99679158426807">
        <time>2024-03-12T04:12:48Z</time>
      </trkpt>
      <trkpt lat="40.7683905163548" lon="-3.99721118239841">
        <time>2024-03-12T04:12:48Z</time>
      </trkpt>
      <trkpt lat="40.76832" lon="-3.997413">
        <time>2024-03-12T04:12:48Z</time>
      </trkpt>
      <trkpt lat="40.768204" lon="-3.997458">
        <time>2024-03-12T04:12:48Z</time>
      </trkpt>
      <trkpt lat="40.76772" lon="-3.997669">
        <time>2024-03-12T04:12:48Z</time>
      </trkpt>
      <trkpt lat="40.767383" lon="-3.997829">
        <time>2024-03-12T04:12:48Z</time>
      </trkpt>
      <trkpt lat="40.767094" lon="-3.997987">
        <time>2024-03-12T04:12:48Z</time>
      </trkpt>
      <trkpt lat="40.7667215108524" lon="-3.99834888601129">
        <time>2024-03-12T04:12:48Z</time>
      </trkpt>
      <trkpt lat="40.7663998281714" lon="-3.99881185615306">
        <time>2024-03-12T04:12:48Z</time>
      </trkpt>
      <trkpt lat="40.766248" lon="-3.999075">
        <time>2024-03-12T04:12:48Z</time>
      </trkpt>
      <trkpt lat="40.76603" lon="-3.9994">
        <time>2024-03-12T04:12:48Z</time>
      </trkpt>
      <trkpt lat="40.765868" lon="-3.999474">
        <time>2024-03-12T04:12:48Z</time>
      </trkpt>
      <trkpt lat="40.765461" lon="-3.999614">
        <time>2024-03-12T04:12:48Z</time>
      </trkpt>
      <trkpt lat="40.765045" lon="-3.999825">
        <time>2024-03-12T04:12:48Z</time>
      </trkpt>
      <trkpt lat="40.764852" lon="-3.999879">
        <time>2024-03-12T04:12:48Z</time>
      </trkpt>
      <trkpt lat="40.764557" lon="-3.999833">
        <time>2024-03-12T04:12:48Z</time>
      </trkpt>
      <trkpt lat="40.764155" lon="-3.99974">
        <time>2024-03-12T04:12:48Z</time>
      </trkpt>
      <trkpt lat="40.763909" lon="-3.999758">
        <time>2024-03-12T04:12:48Z</time>
      </trkpt>
      <trkpt lat="40.76366" lon="-3.999808">
        <time>2024-03-12T04:12:48Z</time>
      </trkpt>
      <trkpt lat="40.763422" lon="-3.99985">
        <time>2024-03-12T04:12:48Z</time>
      </trkpt>
      <trkpt lat="40.763219" lon="-3.999973">
        <time>2024-03-12T04:12:48Z</time>
      </trkpt>
      <trkpt lat="40.763101" lon="-4.000126">
        <time>2024-03-12T04:12:48Z</time>
      </trkpt>
      <trkpt lat="40.7630374748536" lon="-4.00030558048285">
        <time>2024-03-12T04:12:48Z</time>
      </trkpt>
      <trkpt lat="40.762953" lon="-4.000552">
        <time>2024-03-12T04:12:48Z</time>
      </trkpt>
      <trkpt lat="40.762904" lon="-4.00088">
        <time>2024-03-12T04:12:48Z</time>
      </trkpt>
      <trkpt lat="40.762881" lon="-4.001049">
        <time>2024-03-12T04:12:48Z</time>
      </trkpt>
      <trkpt lat="40.762847" lon="-4.001209">
        <time>2024-03-12T04:12:48Z</time>
      </trkpt>
      <trkpt lat="40.76279" lon="-4.001464">
        <time>2024-03-12T04:12:48Z</time>
      </trkpt>
      <trkpt lat="40.762686" lon="-4.001682">
        <time>2024-03-12T04:12:48Z</time>
      </trkpt>
      <trkpt lat="40.762567" lon="-4.001888">
        <time>2024-03-12T04:12:48Z</time>
      </trkpt>
      <trkpt lat="40.762493" lon="-4.002006">
        <time>2024-03-12T04:12:48Z</time>
      </trkpt>
      <trkpt lat="40.762302" lon="-4.002207">
        <time>2024-03-12T04:12:48Z</time>
      </trkpt>
      <trkpt lat="40.761866" lon="-4.002384">
        <time>2024-03-12T04:12:48Z</time>
      </trkpt>
      <trkpt lat="40.761291" lon="-4.002569">
        <time>2024-03-12T04:12:48Z</time>
      </trkpt>
      <trkpt lat="40.761187" lon="-4.00262">
        <time>2024-03-12T04:12:48Z</time>
      </trkpt>
      <trkpt lat="40.761068" lon="-4.002743">
        <time>2024-03-12T04:12:48Z</time>
      </trkpt>
      <trkpt lat="40.760868" lon="-4.002752">
        <time>2024-03-12T04:12:48Z</time>
      </trkpt>
      <trkpt lat="40.76046" lon="-4.002542">
        <time>2024-03-12T04:12:48Z</time>
      </trkpt>
      <trkpt lat="40.760161" lon="-4.002363">
        <time>2024-03-12T04:12:48Z</time>
      </trkpt>
      <trkpt lat="40.759938" lon="-4.002313">
        <time>2024-03-12T04:12:48Z</time>
      </trkpt>
      <trkpt lat="40.759779" lon="-4.002213">
        <time>2024-03-12T04:12:48Z</time>
      </trkpt>
      <trkpt lat="40.759509" lon="-4.002288">
        <time>2024-03-12T04:12:48Z</time>
      </trkpt>
      <trkpt lat="40.759277" lon="-4.002446">
        <time>2024-03-12T04:12:48Z</time>
      </trkpt>
      <trkpt lat="40.759082" lon="-4.002639">
        <time>2024-03-12T04:12:48Z</time>
      </trkpt>
      <trkpt lat="40.758729" lon="-4.002996">
        <time>2024-03-12T04:12:48Z</time>
      </trkpt>
      <trkpt lat="40.758607" lon="-4.003205">
        <time>2024-03-12T04:12:48Z</time>
      </trkpt>
      <trkpt lat="40.758428" lon="-4.003382">
        <time>2024-03-12T04:12:48Z</time>
      </trkpt>
      <trkpt lat="40.757981" lon="-4.003607">
        <time>2024-03-12T04:12:48Z</time>
      </trkpt>
      <trkpt lat="40.757506" lon="-4.003712">
        <time>2024-03-12T04:12:48Z</time>
      </trkpt>
      <trkpt lat="40.757378" lon="-4.003669">
        <time>2024-03-12T04:12:48Z</time>
      </trkpt>
      <trkpt lat="40.757072" lon="-4.003617">
        <time>2024-03-12T04:12:48Z</time>
      </trkpt>
      <trkpt lat="40.756922" lon="-4.003544">
        <time>2024-03-12T04:12:48Z</time>
      </trkpt>
      <trkpt lat="40.756876" lon="-4.003469">
        <time>2024-03-12T04:12:48Z</time>
      </trkpt>
      <trkpt lat="40.756822" lon="-4.003381">
        <time>2024-03-12T04:12:48Z</time>
      </trkpt>
      <trkpt lat="40.756788" lon="-4.003319">
        <time>2024-03-12T04:12:48Z</time>
      </trkpt>
      <trkpt lat="40.756727" lon="-4.003247">
        <time>2024-03-12T04:12:48Z</time>
      </trkpt>
      <trkpt lat="40.756715" lon="-4.00321">
        <time>2024-03-12T04:12:48Z</time>
      </trkpt>
      <trkpt lat="40.756681" lon="-4.003221">
        <time>2024-03-12T04:12:48Z</time>
      </trkpt>
      <trkpt lat="40.756827" lon="-4.003433">
        <time>2024-03-12T04:12:48Z</time>
      </trkpt>
      <trkpt lat="40.756903" lon="-4.003559">
        <time>2024-03-12T04:12:48Z</time>
      </trkpt>
      <trkpt lat="40.756887" lon="-4.003622">
        <time>2024-03-12T04:12:48Z</time>
      </trkpt>
      <trkpt lat="40.756788" lon="-4.003623">
        <time>2024-03-12T04:12:48Z</time>
      </trkpt>
      <trkpt lat="40.756316" lon="-4.003587">
        <time>2024-03-12T04:12:48Z</time>
      </trkpt>
      <trkpt lat="40.755835" lon="-4.003634">
        <time>2024-03-12T04:12:48Z</time>
      </trkpt>
      <trkpt lat="40.754968" lon="-4.00399">
        <time>2024-03-12T04:12:48Z</time>
      </trkpt>
      <trkpt lat="40.754719" lon="-4.00407">
        <time>2024-03-12T04:12:48Z</time>
      </trkpt>
      <trkpt lat="40.754354" lon="-4.004006">
        <time>2024-03-12T04:12:48Z</time>
      </trkpt>
      <trkpt lat="40.754173" lon="-4.003957">
        <time>2024-03-12T04:12:48Z</time>
      </trkpt>
      <trkpt lat="40.75407" lon="-4.00392">
        <time>2024-03-12T04:12:48Z</time>
      </trkpt>
      <trkpt lat="40.754032" lon="-4.003935">
        <time>2024-03-12T04:12:48Z</time>
      </trkpt>
      <trkpt lat="40.754003" lon="-4.003955">
        <time>2024-03-12T04:12:48Z</time>
      </trkpt>
      <trkpt lat="40.75397" lon="-4.003955">
        <time>2024-03-12T04:12:48Z</time>
      </trkpt>
      <trkpt lat="40.753838" lon="-4.003868">
        <time>2024-03-12T04:12:48Z</time>
      </trkpt>
      <trkpt lat="40.753725" lon="-4.003788">
        <time>2024-03-12T04:12:48Z</time>
      </trkpt>
      <trkpt lat="40.75372" lon="-4.003809">
        <time>2024-03-12T04:12:48Z</time>
      </trkpt>
      <trkpt lat="40.7539569852938" lon="-4.00397687913147">
        <time>2024-03-12T04:12:48Z</time>
      </trkpt>
      <trkpt lat="40.754045" lon="-4.004143">
        <time>2024-03-12T04:12:48Z</time>
      </trkpt>
      <trkpt lat="40.754238" lon="-4.004405">
        <time>2024-03-12T04:12:48Z</time>
      </trkpt>
      <trkpt lat="40.754583" lon="-4.004731">
        <time>2024-03-12T04:12:48Z</time>
      </trkpt>
      <trkpt lat="40.754947" lon="-4.004981">
        <time>2024-03-12T04:12:48Z</time>
      </trkpt>
      <trkpt lat="40.755238" lon="-4.005205">
        <time>2024-03-12T04:12:48Z</time>
      </trkpt>
      <trkpt lat="40.755365" lon="-4.005312">
        <time>2024-03-12T04:12:48Z</time>
      </trkpt>
      <trkpt lat="40.755485" lon="-4.005461">
        <time>2024-03-12T04:12:48Z</time>
      </trkpt>
      <trkpt lat="40.755606" lon="-4.005775">
        <time>2024-03-12T04:12:48Z</time>
      </trkpt>
      <trkpt lat="40.755565" lon="-4.006072">
        <time>2024-03-12T04:12:48Z</time>
      </trkpt>
      <trkpt lat="40.755428" lon="-4.006445">
        <time>2024-03-12T04:12:48Z</time>
      </trkpt>
      <trkpt lat="40.755198" lon="-4.006918">
        <time>2024-03-12T04:12:48Z</time>
      </trkpt>
      <trkpt lat="40.755119" lon="-4.007147">
        <time>2024-03-12T04:12:48Z</time>
      </trkpt>
      <trkpt lat="40.755076" lon="-4.00735">
        <time>2024-03-12T04:12:48Z</time>
      </trkpt>
      <trkpt lat="40.75508" lon="-4.007786">
        <time>2024-03-12T04:12:48Z</time>
      </trkpt>
      <trkpt lat="40.7550934858219" lon="-4.00788546522027">
        <time>2024-03-12T04:12:48Z</time>
      </trkpt>
      <trkpt lat="40.755072" lon="-4.007975">
        <time>2024-03-12T04:12:48Z</time>
      </trkpt>
      <trkpt lat="40.754692" lon="-4.008508">
        <time>2024-03-12T04:12:48Z</time>
      </trkpt>
      <trkpt lat="40.754631" lon="-4.008663">
        <time>2024-03-12T04:12:48Z</time>
      </trkpt>
      <trkpt lat="40.754556" lon="-4.008873">
        <time>2024-03-12T04:12:48Z</time>
      </trkpt>
      <trkpt lat="40.7545085979374" lon="-4.00902545050359">
        <time>2024-03-12T04:12:48Z</time>
      </trkpt>
      <trkpt lat="40.754469" lon="-4.009196">
        <time>2024-03-12T04:12:48Z</time>
      </trkpt>
      <trkpt lat="40.754381268695" lon="-4.00937089474116">
        <time>2024-03-12T04:12:48Z</time>
      </trkpt>
      <trkpt lat="40.754292" lon="-4.009542">
        <time>2024-03-12T04:12:48Z</time>
      </trkpt>
      <trkpt lat="40.754245" lon="-4.009798">
        <time>2024-03-12T04:12:48Z</time>
      </trkpt>
      <trkpt lat="40.754158" lon="-4.010281">
        <time>2024-03-12T04:12:48Z</time>
      </trkpt>
      <trkpt lat="40.754018" lon="-4.010647">
        <time>2024-03-12T04:12:48Z</time>
      </trkpt>
      <trkpt lat="40.753998" lon="-4.010702">
        <time>2024-03-12T04:12:48Z</time>
      </trkpt>
      <trkpt lat="40.753965" lon="-4.010656">
        <time>2024-03-12T04:12:48Z</time>
      </trkpt>
      <trkpt lat="40.753923" lon="-4.010601">
        <time>2024-03-12T04:12:48Z</time>
      </trkpt>
      <trkpt lat="40.753896" lon="-4.010568">
        <time>2024-03-12T04:12:48Z</time>
      </trkpt>
      <trkpt lat="40.753852" lon="-4.010535">
        <time>2024-03-12T04:12:48Z</time>
      </trkpt>
      <trkpt lat="40.753746" lon="-4.01047">
        <time>2024-03-12T04:12:48Z</time>
      </trkpt>
      <trkpt lat="40.753533" lon="-4.010296">
        <time>2024-03-12T04:12:48Z</time>
      </trkpt>
      <trkpt lat="40.753344" lon="-4.010108">
        <time>2024-03-12T04:12:48Z</time>
      </trkpt>
      <trkpt lat="40.753282" lon="-4.009999">
        <time>2024-03-12T04:12:48Z</time>
      </trkpt>
      <trkpt lat="40.753230135525" lon="-4.00991199019663">
        <time>2024-03-12T04:12:48Z</time>
      </trkpt>
      <trkpt lat="40.753181" lon="-4.00985">
        <time>2024-03-12T04:12:48Z</time>
      </trkpt>
      <trkpt lat="40.753173" lon="-4.009878">
        <time>2024-03-12T04:12:48Z</time>
      </trkpt>
      <trkpt lat="40.753317" lon="-4.010091">
        <time>2024-03-12T04:12:48Z</time>
      </trkpt>
      <trkpt lat="40.753423" lon="-4.010207">
        <time>2024-03-12T04:12:48Z</time>
      </trkpt>
      <trkpt lat="40.753647" lon="-4.010403">
        <time>2024-03-12T04:12:48Z</time>
      </trkpt>
      <trkpt lat="40.753801" lon="-4.01052">
        <time>2024-03-12T04:12:48Z</time>
      </trkpt>
      <trkpt lat="40.753845" lon="-4.010618">
        <time>2024-03-12T04:12:48Z</time>
      </trkpt>
      <trkpt lat="40.75388" lon="-4.010887">
        <time>2024-03-12T04:12:48Z</time>
      </trkpt>
      <trkpt lat="40.753829" lon="-4.011076">
        <time>2024-03-12T04:12:48Z</time>
      </trkpt>
      <trkpt lat="40.753788" lon="-4.011181">
        <time>2024-03-12T04:12:48Z</time>
      </trkpt>
      <trkpt lat="40.753723" lon="-4.011295">
        <time>2024-03-12T04:12:48Z</time>
      </trkpt>
      <trkpt lat="40.753513" lon="-4.011344">
        <time>2024-03-12T04:12:48Z</time>
      </trkpt>
      <trkpt lat="40.753397" lon="-4.011361">
        <time>2024-03-12T04:12:48Z</time>
      </trkpt>
      <trkpt lat="40.753108" lon="-4.01137">
        <time>2024-03-12T04:12:48Z</time>
      </trkpt>
      <trkpt lat="40.75278" lon="-4.011253">
        <time>2024-03-12T04:12:48Z</time>
      </trkpt>
      <trkpt lat="40.752588" lon="-4.011158">
        <time>2024-03-12T04:12:48Z</time>
      </trkpt>
      <trkpt lat="40.752535" lon="-4.011085">
        <time>2024-03-12T04:12:48Z</time>
      </trkpt>
      <trkpt lat="40.752482" lon="-4.010976">
        <time>2024-03-12T04:12:48Z</time>
      </trkpt>
      <trkpt lat="40.752383" lon="-4.010666">
        <time>2024-03-12T04:12:48Z</time>
      </trkpt>
      <trkpt lat="40.752342" lon="-4.01043">
        <time>2024-03-12T04:12:48Z</time>
      </trkpt>
      <trkpt lat="40.752343" lon="-4.010307">
        <time>2024-03-12T04:12:48Z</time>
      </trkpt>
      <trkpt lat="40.752355" lon="-4.010259">
        <time>2024-03-12T04:12:48Z</time>
      </trkpt>
      <trkpt lat="40.752547" lon="-4.00988">
        <time>2024-03-12T04:12:48Z</time>
      </trkpt>
      <trkpt lat="40.752628" lon="-4.00969">
        <time>2024-03-12T04:12:48Z</time>
      </trkpt>
      <trkpt lat="40.752721" lon="-4.009513">
        <time>2024-03-12T04:12:48Z</time>
      </trkpt>
      <trkpt lat="40.752828" lon="-4.009283">
        <time>2024-03-12T04:12:48Z</time>
      </trkpt>
      <trkpt lat="40.752821" lon="-4.009148">
        <time>2024-03-12T04:12:48Z</time>
      </trkpt>
      <trkpt lat="40.752878" lon="-4.009053">
        <time>2024-03-12T04:12:48Z</time>
      </trkpt>
      <trkpt lat="40.752965" lon="-4.00897">
        <time>2024-03-12T04:12:48Z</time>
      </trkpt>
      <trkpt lat="40.753078" lon="-4.008942">
        <time>2024-03-12T04:12:48Z</time>
      </trkpt>
      <trkpt lat="40.753179" lon="-4.008982">
        <time>2024-03-12T04:12:48Z</time>
      </trkpt>
      <trkpt lat="40.753257" lon="-4.008919">
        <time>2024-03-12T04:12:48Z</time>
      </trkpt>
      <trkpt lat="40.753322" lon="-4.008759">
        <time>2024-03-12T04:12:48Z</time>
      </trkpt>
      <trkpt lat="40.753427" lon="-4.008722">
        <time>2024-03-12T04:12:48Z</time>
      </trkpt>
      <trkpt lat="40.753469" lon="-4.008679">
        <time>2024-03-12T04:12:48Z</time>
      </trkpt>
      <trkpt lat="40.753489" lon="-4.008641">
        <time>2024-03-12T04:12:48Z</time>
      </trkpt>
      <trkpt lat="40.753545" lon="-4.008358">
        <time>2024-03-12T04:12:48Z</time>
      </trkpt>
      <trkpt lat="40.753545" lon="-4.008228">
        <time>2024-03-12T04:12:48Z</time>
      </trkpt>
      <trkpt lat="40.75362" lon="-4.008102">
        <time>2024-03-12T04:12:48Z</time>
      </trkpt>
      <trkpt lat="40.753738" lon="-4.007894">
        <time>2024-03-12T04:12:48Z</time>
      </trkpt>
      <trkpt lat="40.753885" lon="-4.007703">
        <time>2024-03-12T04:12:48Z</time>
      </trkpt>
      <trkpt lat="40.753985" lon="-4.007588">
        <time>2024-03-12T04:12:48Z</time>
      </trkpt>
      <trkpt lat="40.754047" lon="-4.007542">
        <time>2024-03-12T04:12:48Z</time>
      </trkpt>
      <trkpt lat="40.754131" lon="-4.007354">
        <time>2024-03-12T04:12:48Z</time>
      </trkpt>
      <trkpt lat="40.754103" lon="-4.007159">
        <time>2024-03-12T04:12:48Z</time>
      </trkpt>
      <trkpt lat="40.754097" lon="-4.007077">
        <time>2024-03-12T04:12:48Z</time>
      </trkpt>
      <trkpt lat="40.75408" lon="-4.007043">
        <time>2024-03-12T04:12:48Z</time>
      </trkpt>
      <trkpt lat="40.754055" lon="-4.007041">
        <time>2024-03-12T04:12:48Z</time>
      </trkpt>
      <trkpt lat="40.753946" lon="-4.007097">
        <time>2024-03-12T04:12:48Z</time>
      </trkpt>
      <trkpt lat="40.753753" lon="-4.007089">
        <time>2024-03-12T04:12:48Z</time>
      </trkpt>
      <trkpt lat="40.753506" lon="-4.007077">
        <time>2024-03-12T04:12:48Z</time>
      </trkpt>
      <trkpt lat="40.753416" lon="-4.007031">
        <time>2024-03-12T04:12:48Z</time>
      </trkpt>
      <trkpt lat="40.753182" lon="-4.007051">
        <time>2024-03-12T04:12:48Z</time>
      </trkpt>
      <trkpt lat="40.752999" lon="-4.007">
        <time>2024-03-12T04:12:48Z</time>
      </trkpt>
      <trkpt lat="40.752696" lon="-4.006971">
        <time>2024-03-12T04:12:48Z</time>
      </trkpt>
      <trkpt lat="40.751995" lon="-4.006735">
        <time>2024-03-12T04:12:48Z</time>
      </trkpt>
      <trkpt lat="40.751768" lon="-4.006523">
        <time>2024-03-12T04:12:48Z</time>
      </trkpt>
      <trkpt lat="40.750854" lon="-4.005718">
        <time>2024-03-12T04:12:48Z</time>
      </trkpt>
      <trkpt lat="40.750603" lon="-4.00547">
        <time>2024-03-12T04:12:48Z</time>
      </trkpt>
      <trkpt lat="40.750417" lon="-4.005193">
        <time>2024-03-12T04:12:48Z</time>
      </trkpt>
      <trkpt lat="40.7503391551328" lon="-4.00486234153944">
        <time>2024-03-12T04:12:48Z</time>
      </trkpt>
      <trkpt lat="40.750329" lon="-4.004683">
        <time>2024-03-12T04:12:48Z</time>
      </trkpt>
      <trkpt lat="40.750405" lon="-4.004444">
        <time>2024-03-12T04:12:48Z</time>
      </trkpt>
      <trkpt lat="40.75063" lon="-4.004015">
        <time>2024-03-12T04:12:48Z</time>
      </trkpt>
      <trkpt lat="40.75079" lon="-4.003785">
        <time>2024-03-12T04:12:48Z</time>
      </trkpt>
      <trkpt lat="40.750988" lon="-4.003567">
        <time>2024-03-12T04:12:48Z</time>
      </trkpt>
      <trkpt lat="40.751153" lon="-4.003288">
        <time>2024-03-12T04:12:48Z</time>
      </trkpt>
      <trkpt lat="40.751327" lon="-4.002945">
        <time>2024-03-12T04:12:48Z</time>
      </trkpt>
      <trkpt lat="40.75152" lon="-4.002634">
        <time>2024-03-12T04:12:48Z</time>
      </trkpt>
      <trkpt lat="40.751707" lon="-4.002454">
        <time>2024-03-12T04:12:48Z</time>
      </trkpt>
      <trkpt lat="40.751783" lon="-4.002048">
        <time>2024-03-12T04:12:48Z</time>
      </trkpt>
      <trkpt lat="40.751928" lon="-4.00134">
        <time>2024-03-12T04:12:48Z</time>
      </trkpt>
      <trkpt lat="40.751989" lon="-4.001027">
        <time>2024-03-12T04:12:48Z</time>
      </trkpt>
      <trkpt lat="40.752042" lon="-4.000692">
        <time>2024-03-12T04:12:48Z</time>
      </trkpt>
      <trkpt lat="40.75214" lon="-4.000186">
        <time>2024-03-12T04:12:48Z</time>
      </trkpt>
      <trkpt lat="40.75217" lon="-4.000118">
        <time>2024-03-12T04:12:48Z</time>
      </trkpt>
      <trkpt lat="40.752187" lon="-4.000087">
        <time>2024-03-12T04:12:48Z</time>
      </trkpt>
      <trkpt lat="40.752272" lon="-3.999847">
        <time>2024-03-12T04:12:48Z</time>
      </trkpt>
      <trkpt lat="40.752657" lon="-3.999443">
        <time>2024-03-12T04:12:48Z</time>
      </trkpt>
      <trkpt lat="40.753073" lon="-3.99918">
        <time>2024-03-12T04:12:48Z</time>
      </trkpt>
      <trkpt lat="40.753363" lon="-3.998963">
        <time>2024-03-12T04:12:48Z</time>
      </trkpt>
      <trkpt lat="40.75365" lon="-3.998782">
        <time>2024-03-12T04:12:48Z</time>
      </trkpt>
      <trkpt lat="40.754033" lon="-3.998732">
        <time>2024-03-12T04:12:48Z</time>
      </trkpt>
      <trkpt lat="40.754453" lon="-3.998712">
        <time>2024-03-12T04:12:48Z</time>
      </trkpt>
      <trkpt lat="40.754643" lon="-3.998643">
        <time>2024-03-12T04:12:48Z</time>
      </trkpt>
      <trkpt lat="40.754946" lon="-3.998744">
        <time>2024-03-12T04:12:48Z</time>
      </trkpt>
      <trkpt lat="40.755279" lon="-3.998798">
        <time>2024-03-12T04:12:48Z</time>
      </trkpt>
      <trkpt lat="40.755572" lon="-3.998889">
        <time>2024-03-12T04:12:48Z</time>
      </trkpt>
      <trkpt lat="40.755803" lon="-3.9989">
        <time>2024-03-12T04:12:48Z</time>
      </trkpt>
      <trkpt lat="40.756135" lon="-3.99876">
        <time>2024-03-12T04:12:48Z</time>
      </trkpt>
      <trkpt lat="40.756355" lon="-3.998632">
        <time>2024-03-12T04:12:48Z</time>
      </trkpt>
      <trkpt lat="40.756624" lon="-3.998728">
        <time>2024-03-12T04:12:48Z</time>
      </trkpt>
      <trkpt lat="40.756823" lon="-3.998659">
        <time>2024-03-12T04:12:48Z</time>
      </trkpt>
      <trkpt lat="40.757133" lon="-3.99841">
        <time>2024-03-12T04:12:48Z</time>
      </trkpt>
      <trkpt lat="40.757615" lon="-3.998326">
        <time>2024-03-12T04:12:48Z</time>
      </trkpt>
      <trkpt lat="40.757793" lon="-3.998365">
        <time>2024-03-12T04:12:48Z</time>
      </trkpt>
      <trkpt lat="40.75794" lon="-3.998203">
        <time>2024-03-12T04:12:48Z</time>
      </trkpt>
      <trkpt lat="40.758252" lon="-3.997637">
        <time>2024-03-12T04:12:48Z</time>
      </trkpt>
      <trkpt lat="40.758424" lon="-3.997344">
        <time>2024-03-12T04:12:48Z</time>
      </trkpt>
      <trkpt lat="40.758623" lon="-3.997141">
        <time>2024-03-12T04:12:48Z</time>
      </trkpt>
      <trkpt lat="40.758882" lon="-3.996997">
        <time>2024-03-12T04:12:48Z</time>
      </trkpt>
      <trkpt lat="40.759507" lon="-3.99663">
        <time>2024-03-12T04:12:48Z</time>
      </trkpt>
      <trkpt lat="40.759933" lon="-3.99643">
        <time>2024-03-12T04:12:48Z</time>
      </trkpt>
      <trkpt lat="40.760488" lon="-3.996327">
        <time>2024-03-12T04:12:48Z</time>
      </trkpt>
      <trkpt lat="40.761002" lon="-3.996305">
        <time>2024-03-12T04:12:48Z</time>
      </trkpt>
      <trkpt lat="40.761007" lon="-3.996305">
        <time>2024-03-12T04:12:48Z</time>
      </trkpt>
      <trkpt lat="40.761007" lon="-3.996305">
        <time>2024-03-12T04:12:48Z</time>
      </trkpt>
      <trkpt lat="40.761343" lon="-3.996225">
        <time>2024-03-12T04:12:48Z</time>
      </trkpt>
      <trkpt lat="40.761568" lon="-3.996007">
        <time>2024-03-12T04:12:48Z</time>
      </trkpt>
      <trkpt lat="40.7623833526503" lon="-3.99553682000155">
        <time>2024-03-12T04:12:48Z</time>
      </trkpt>
      <trkpt lat="40.7624626955858" lon="-3.9953968678902">
        <time>2024-03-12T04:12:48Z</time>
      </trkpt>
      <trkpt lat="40.7624676477321" lon="-3.99532314515673">
        <time>2024-03-12T04:12:48Z</time>
      </trkpt>
      <trkpt lat="40.7624453611435" lon="-3.99520473811604">
        <time>2024-03-12T04:12:48Z</time>
      </trkpt>
      <trkpt lat="40.7623607423109" lon="-3.99510697274055">
        <time>2024-03-12T04:12:48Z</time>
      </trkpt>
      <trkpt lat="40.7621609910548" lon="-3.99494618285523">
        <time>2024-03-12T04:12:48Z</time>
      </trkpt>
      <trkpt lat="40.7617250814353" lon="-3.99474213653098">
        <time>2024-03-12T04:12:48Z</time>
      </trkpt>
      <trkpt lat="40.7612523248017" lon="-3.99470670515418">
        <time>2024-03-12T04:12:48Z</time>
      </trkpt>
      <trkpt lat="40.760717762197" lon="-3.99453071068551">
        <time>2024-03-12T04:12:48Z</time>
      </trkpt>
      <trkpt lat="40.76065518333" lon="-3.99447982460715">
        <time>2024-03-12T04:12:48Z</time>
      </trkpt>
      <trkpt lat="40.7604469683363" lon="-3.99439952085428">
        <time>2024-03-12T04:12:48Z</time>
      </trkpt>
      <trkpt lat="40.7602233854103" lon="-3.99439959450007">
        <time>2024-03-12T04:12:48Z</time>
      </trkpt>
      <trkpt lat="40.760003" lon="-3.994587">
        <time>2024-03-12T04:12:48Z</time>
      </trkpt>
      <trkpt lat="40.759753212789" lon="-3.9945651507746">
        <time>2024-03-12T04:12:48Z</time>
      </trkpt>
      <trkpt lat="40.75959" lon="-3.994544">
        <time>2024-03-12T04:12:48Z</time>
      </trkpt>
      <trkpt lat="40.7591877159807" lon="-3.99447271110832">
        <time>2024-03-12T04:12:48Z</time>
      </trkpt>
      <trkpt lat="40.7587869029885" lon="-3.99440316220061">
        <time>2024-03-12T04:12:48Z</time>
      </trkpt>
      <trkpt lat="40.758533" lon="-3.994364">
        <time>2024-03-12T04:12:48Z</time>
      </trkpt>
      <trkpt lat="40.7583332915733" lon="-3.99434985632013">
        <time>2024-03-12T04:12:48Z</time>
      </trkpt>
      <trkpt lat="40.7582068401008" lon="-3.99429802049593">
        <time>2024-03-12T04:12:48Z</time>
      </trkpt>
      <trkpt lat="40.7581112954429" lon="-3.99426594479033">
        <time>2024-03-12T04:12:48Z</time>
      </trkpt>
      <trkpt lat="40.7579684246742" lon="-3.99421613517381">
        <time>2024-03-12T04:12:48Z</time>
      </trkpt>
      <trkpt lat="40.7579097382118" lon="-3.99411422305348">
        <time>2024-03-12T04:12:48Z</time>
      </trkpt>
      <trkpt lat="40.757869" lon="-3.994005">
        <time>2024-03-12T04:12:48Z</time>
      </trkpt>
      <trkpt lat="40.7578561886165" lon="-3.99391702628379">
        <time>2024-03-12T04:12:48Z</time>
      </trkpt>
      <trkpt lat="40.7581737346355" lon="-3.99353122695966">
        <time>2024-03-12T04:12:48Z</time>
      </trkpt>
      <trkpt lat="40.7582159634826" lon="-3.99333886147703">
        <time>2024-03-12T04:12:48Z</time>
      </trkpt>
      <trkpt lat="40.7581457393427" lon="-3.99317320348794">
        <time>2024-03-12T04:12:48Z</time>
      </trkpt>
      <trkpt lat="40.7580726325064" lon="-3.99304156068581">
        <time>2024-03-12T04:12:48Z</time>
      </trkpt>
      <trkpt lat="40.7579975782283" lon="-3.9930359026821">
        <time>2024-03-12T04:12:48Z</time>
      </trkpt>
      <trkpt lat="40.7578028926595" lon="-3.99308863276718">
        <time>2024-03-12T04:12:48Z</time>
      </trkpt>
      <trkpt lat="40.757502838814" lon="-3.99324764288765">
        <time>2024-03-12T04:12:48Z</time>
      </trkpt>
      <trkpt lat="40.7572911443241" lon="-3.99327060244209">
        <time>2024-03-12T04:12:48Z</time>
      </trkpt>
      <trkpt lat="40.757071828095" lon="-3.9932764197976">
        <time>2024-03-12T04:12:48Z</time>
      </trkpt>
      <trkpt lat="40.7567913166999" lon="-3.99327110910058">
        <time>2024-03-12T04:12:48Z</time>
      </trkpt>
      <trkpt lat="40.756665" lon="-3.993345">
        <time>2024-03-12T04:12:48Z</time>
      </trkpt>
      <trkpt lat="40.7564148956835" lon="-3.99347665883">
        <time>2024-03-12T04:12:48Z</time>
      </trkpt>
      <trkpt lat="40.756204" lon="-3.99359">
        <time>2024-03-12T04:12:48Z</time>
      </trkpt>
      <trkpt lat="40.756117" lon="-3.993639">
        <time>2024-03-12T04:12:48Z</time>
      </trkpt>
      <trkpt lat="40.755971" lon="-3.993725">
        <time>2024-03-12T04:12:48Z</time>
      </trkpt>
      <trkpt lat="40.755542" lon="-3.99396">
        <time>2024-03-12T04:12:48Z</time>
      </trkpt>
      <trkpt lat="40.755407" lon="-3.994067">
        <time>2024-03-12T04:12:48Z</time>
      </trkpt>
      <trkpt lat="40.7550086942487" lon="-3.99427420747457">
        <time>2024-03-12T04:12:48Z</time>
      </trkpt>
      <trkpt lat="40.7547130302384" lon="-3.99432429199885">
        <time>2024-03-12T04:12:48Z</time>
      </trkpt>
      <trkpt lat="40.754305" lon="-3.99433">
        <time>2024-03-12T04:12:48Z</time>
      </trkpt>
      <trkpt lat="40.7541435226714" lon="-3.99429650835829">
        <time>2024-03-12T04:12:48Z</time>
      </trkpt>
      <trkpt lat="40.7538409606914" lon="-3.99424545789452">
        <time>2024-03-12T04:12:48Z</time>
      </trkpt>
      <trkpt lat="40.753713" lon="-3.994162">
        <time>2024-03-12T04:12:48Z</time>
      </trkpt>
      <trkpt lat="40.7534591404953" lon="-3.99397527276283">
        <time>2024-03-12T04:12:48Z</time>
      </trkpt>
      <trkpt lat="40.7533806111916" lon="-3.99387193713848">
        <time>2024-03-12T04:12:48Z</time>
      </trkpt>
      <trkpt lat="40.7531539797974" lon="-3.99362449965405">
        <time>2024-03-12T04:12:48Z</time>
      </trkpt>
      <trkpt lat="40.7529904387561" lon="-3.9934688166535">
        <time>2024-03-12T04:12:48Z</time>
      </trkpt>
      <trkpt lat="40.7528549024839" lon="-3.99336917452189">
        <time>2024-03-12T04:12:48Z</time>
      </trkpt>
      <trkpt lat="40.7527750698543" lon="-3.99331690371047">
        <time>2024-03-12T04:12:48Z</time>
      </trkpt>
      <trkpt lat="40.7527493416531" lon="-3.99329722293738">
        <time>2024-03-12T04:12:48Z</time>
      </trkpt>
    </trkseg>
  </trk>
</gpx>
